period_start,C,m1,H,J0,J1,J2,J3,J4,J5,JA,JB,JC,JD,JJ,JK,JN,#
2014-09-13 00:02:48,0.00,0.32,0.00,25.48,29.72,32.02,9.41,39.04,1015.61,2027.82,3389.59,3206.94,3474.97,499.97,492.03,16.51,0000 0000 0000 0000 000000
2014-09-13 00:07:49,-0.01,0.32,0.00,25.50,29.72,32.04,9.47,38.91,1015.58,2027.83,3389.54,3206.97,3474.96,499.41,491.41,16.55,0000 0000 0000 0000 000000
2014-09-13 00:12:50,0.01,0.32,0.00,25.50,29.72,32.04,9.52,39.16,1015.40,2027.83,3389.48,3206.91,3474.90,500.15,492.01,16.59,0000 0000 0000 0000 000000
2014-09-13 00:17:51,0.01,0.32,0.00,25.53,29.72,32.04,9.51,39.15,1015.41,2027.66,3388.99,3206.61,3474.59,499.48,491.47,16.63,0000 0000 0000 0000 000000
2014-09-13 00:22:52,-0.01,0.32,0.00,25.55,29.72,32.05,9.45,38.71,1015.48,2027.26,3388.26,3206.02,3474.03,500.30,492.59,16.68,0000 0000 0000 0000 000000
2014-09-13 00:27:54,0.01,0.32,0.00,25.58,29.72,32.04,9.47,38.83,1015.53,2027.16,3388.04,3205.99,3474.00,499.93,491.74,16.72,0000 0000 0000 0000 000000
2014-09-13 00:32:55,0.01,0.32,0.00,25.61,29.74,32.06,9.51,38.59,1015.49,2027.26,3388.02,3205.99,3473.97,500.02,491.86,16.76,0000 0000 0000 0000 000000
2014-09-13 00:37:56,-0.00,0.32,0.00,25.62,29.75,32.06,9.35,38.45,1015.52,2027.31,3388.00,3205.98,3473.94,499.35,491.37,16.80,0000 0000 0000 0000 000000
2014-09-13 00:42:58,-0.01,0.32,0.00,25.64,29.75,32.07,9.56,38.99,1015.51,2027.11,3387.99,3205.94,3473.82,501.03,492.87,16.84,0000 0000 0000 0000 000000
2014-09-13 00:47:59,0.00,0.32,0.00,25.68,29.76,32.07,9.42,38.79,1015.49,2027.14,3387.99,3205.96,3473.83,499.92,491.47,16.88,0000 0000 0000 0000 000000
2014-09-13 00:53:00,-0.00,0.32,0.00,25.70,29.77,32.08,9.48,39.14,1015.56,2027.08,3387.99,3205.93,3473.82,500.08,491.66,16.93,0000 0000 0000 0000 000000
2014-09-13 00:58:01,0.02,0.32,0.00,25.73,29.77,32.08,9.54,39.19,1015.61,2027.05,3387.94,3205.57,3473.50,501.00,492.67,16.97,0000 0000 0000 0000 000000
2014-09-13 01:03:02,0.01,0.32,0.00,25.77,29.79,32.10,9.42,39.06,1015.63,2027.02,3387.77,3205.22,3473.31,499.82,491.52,17.01,0000 0000 0000 0000 000000
2014-09-13 01:08:03,0.01,0.32,0.00,25.79,29.80,32.11,9.56,39.22,1015.64,2027.02,3387.54,3205.13,3473.05,500.24,491.53,17.05,0000 0000 0000 0000 000000
2014-09-13 01:13:04,0.00,0.32,0.00,25.80,29.82,32.13,9.39,38.97,1015.64,2027.01,3387.24,3205.03,3473.01,499.96,491.58,17.09,0000 0000 0000 0000 000000
2014-09-13 01:18:05,0.00,0.32,0.00,25.82,29.82,32.14,9.39,38.83,1015.64,2027.00,3387.01,3205.00,3472.94,499.92,491.19,17.14,0000 0000 0000 0000 000000
2014-09-13 01:23:06,0.00,0.32,0.00,25.84,29.85,32.16,9.39,38.85,1015.64,2026.99,3387.01,3205.00,3472.86,500.02,491.59,17.18,0000 0000 0000 0000 000000
2014-09-13 01:28:07,0.00,0.32,0.00,25.85,29.85,32.17,9.50,39.25,1015.64,2026.99,3387.00,3204.99,3472.75,500.69,492.07,17.22,0000 0000 0000 0000 000000
2014-09-13 01:33:08,0.00,0.32,0.00,25.87,29.87,32.20,9.41,38.59,1015.64,2026.98,3386.99,3204.95,3472.56,499.29,490.86,17.26,0000 0000 0000 0000 000000
2014-09-13 01:38:09,0.01,0.32,0.00,25.87,29.87,32.20,9.40,39.04,1015.64,2026.95,3386.93,3204.75,3472.21,499.41,490.69,17.30,0000 0000 0000 0000 000000
2014-09-13 01:43:10,-0.00,0.32,0.00,25.89,29.90,32.22,9.46,39.33,1015.64,2026.88,3386.86,3204.26,3472.01,499.88,491.40,17.34,0000 0000 0000 0000 000000
2014-09-13 01:48:12,0.00,0.32,0.00,25.90,29.90,32.25,9.43,38.85,1015.64,2026.72,3386.44,3204.09,3472.00,500.00,491.42,17.39,0000 0000 0000 0000 000000
2014-09-13 01:53:13,-0.01,0.32,0.00,25.92,29.92,32.25,9.41,39.02,1015.64,2026.57,3386.26,3204.02,3471.99,499.90,491.16,17.43,0000 0000 0000 0000 000000
2014-09-13 01:58:14,-0.02,0.32,0.00,25.92,29.92,32.26,9.43,39.12,1015.64,2026.39,3386.06,3204.00,3471.98,500.18,491.33,17.47,0000 0000 0000 0000 000000
2014-09-13 02:03:16,-0.01,0.32,0.00,25.94,29.94,32.27,9.40,39.17,1015.64,2026.24,3386.01,3204.01,3471.97,500.09,491.45,17.51,0000 0000 0000 0000 000000
2014-09-13 02:08:17,-0.02,0.32,0.00,25.95,29.95,32.28,9.40,38.90,1015.64,2026.11,3386.01,3204.00,3471.83,499.53,490.86,17.55,0000 0000 0000 0000 000000
2014-09-13 02:13:18,-0.00,0.32,0.00,25.94,29.96,32.30,9.50,39.18,1015.64,2026.04,3386.00,3203.99,3471.60,500.33,491.73,17.60,0000 0000 0000 0000 000000
2014-09-13 02:18:18,0.00,0.32,0.00,25.96,29.97,32.31,9.45,38.80,1015.64,2026.03,3386.00,3203.97,3471.48,499.72,491.13,17.64,0000 0000 0000 0000 000000
2014-09-13 02:23:20,0.00,0.32,0.00,26.00,29.99,32.33,9.44,38.91,1015.64,2026.01,3385.97,3203.92,3471.28,499.67,491.08,17.68,0000 0000 0000 0000 000000
2014-09-13 02:28:21,0.00,0.32,0.00,26.01,30.00,32.33,9.41,38.53,1015.63,2026.00,3385.90,3203.76,3471.09,500.22,491.44,17.72,0000 0000 0000 0000 000000
2014-09-13 02:33:22,0.02,0.32,0.00,26.01,30.02,32.36,9.47,39.02,1015.64,2026.00,3385.61,3203.30,3471.03,500.35,491.50,17.76,0000 0000 0000 0000 000000
2014-09-13 02:38:23,0.00,0.32,0.00,26.03,30.02,32.36,9.40,39.20,1015.64,2026.00,3385.31,3203.10,3470.99,500.12,491.34,17.81,0000 0000 0000 0000 000000
2014-09-13 02:43:24,0.01,0.32,0.00,26.05,30.04,32.38,9.41,38.90,1015.63,2026.00,3385.29,3203.08,3470.98,500.27,491.50,17.85,0000 0000 0000 0000 000000
2014-09-13 02:48:25,0.00,0.32,0.00,26.05,30.05,32.40,9.45,39.17,1015.58,2026.00,3385.09,3203.03,3470.94,500.13,491.26,17.89,0000 0000 0000 0000 000000
2014-09-13 02:53:26,0.00,0.32,0.00,26.06,30.07,32.40,9.42,39.17,1015.49,2026.00,3385.04,3203.00,3470.92,500.05,491.05,17.93,0000 0000 0000 0000 000000
2014-09-13 02:58:27,-0.00,0.32,0.00,26.08,30.07,32.41,9.51,39.18,1015.50,2025.99,3385.02,3203.00,3470.81,500.19,491.34,17.97,0000 0000 0000 0000 000000
2014-09-13 03:03:28,0.01,0.32,0.00,26.10,30.10,32.42,9.41,39.19,1015.52,2025.98,3385.00,3203.00,3470.76,500.28,491.26,18.01,0000 0000 0000 0000 000000
2014-09-13 03:08:29,0.00,0.32,0.00,26.12,30.10,32.44,9.43,39.05,1015.46,2025.97,3385.00,3202.99,3470.31,500.30,490.97,18.06,0000 0000 0000 0000 000000
2014-09-13 03:13:30,-0.00,0.32,0.00,26.15,30.12,32.47,9.41,38.88,1015.49,2025.96,3385.00,3202.98,3470.29,499.46,490.50,18.10,0000 0000 0000 0000 000000
2014-09-13 03:18:32,-0.01,0.32,0.00,26.16,30.14,32.47,9.49,39.00,1015.49,2025.85,3385.00,3202.95,3470.06,500.44,491.37,18.14,0000 0000 0000 0000 000000
2014-09-13 03:23:33,-0.00,0.32,0.00,26.17,30.15,32.49,9.43,38.80,1015.27,2025.74,3384.99,3202.87,3470.01,499.83,490.57,18.18,0000 0000 0000 0000 000000
2014-09-13 03:28:34,-0.05,0.32,0.00,26.19,30.17,32.50,9.42,38.74,1015.31,2025.22,3384.95,3202.38,3469.99,500.23,490.94,18.22,0000 0000 0000 0000 000000
2014-09-13 03:33:35,0.01,0.32,0.00,26.21,30.18,32.51,9.43,38.99,1015.41,2025.06,3384.34,3202.05,3469.89,500.15,490.85,18.27,0000 0000 0000 0000 000000
2014-09-13 03:38:36,0.00,0.32,0.00,26.22,30.20,32.53,9.38,38.72,1015.36,2025.02,3384.19,3202.01,3469.82,499.80,490.69,18.31,0000 0000 0000 0000 000000
2014-09-13 03:43:37,0.00,0.32,0.00,26.24,30.21,32.53,9.43,39.40,1015.35,2025.01,3384.07,3202.00,3469.55,499.80,490.50,18.35,0000 0000 0000 0000 000000
2014-09-13 03:48:38,0.00,0.32,0.00,26.27,30.22,32.56,9.49,39.09,1015.24,2025.01,3384.01,3202.00,3469.22,499.89,490.70,18.39,0000 0000 0000 0000 000000
2014-09-13 03:53:39,0.00,0.32,0.00,26.24,30.24,32.57,9.49,38.95,1015.17,2025.00,3384.00,3201.99,3469.09,500.05,490.82,18.43,0000 0000 0000 0000 000000
2014-09-13 03:58:41,0.00,0.32,0.00,26.25,30.25,32.59,9.47,39.09,1015.19,2025.00,3383.99,3201.96,3469.07,500.08,490.75,18.47,0000 0000 0000 0000 000000
2014-09-13 04:03:42,0.00,0.32,0.00,26.29,30.27,32.59,9.40,39.12,1015.17,2025.00,3383.99,3201.89,3469.04,499.67,490.26,18.52,0000 0000 0000 0000 000000
2014-09-13 04:08:43,0.02,0.32,0.00,26.30,30.28,32.61,9.45,39.33,1015.17,2024.99,3383.90,3201.45,3468.91,500.19,490.78,18.56,0000 0000 0000 0000 000000
2014-09-13 04:13:44,0.02,0.32,0.00,26.30,30.30,32.63,9.43,39.38,1015.17,2024.97,3383.67,3201.12,3468.65,499.84,490.30,18.60,0000 0000 0000 0000 000000
2014-09-13 04:18:45,0.00,0.32,0.00,26.32,30.31,32.63,9.42,39.27,1015.16,2024.97,3383.45,3201.02,3468.49,500.01,490.35,18.64,0000 0000 0000 0000 000000
2014-09-13 04:23:46,0.00,0.32,0.00,26.34,30.32,32.64,9.51,39.40,1015.17,2024.92,3383.10,3201.00,3468.26,500.59,490.82,18.68,0000 0000 0000 0000 000000
2014-09-13 04:28:47,-0.01,0.32,0.00,26.37,30.34,32.66,9.39,39.47,1015.16,2024.78,3383.02,3201.00,3468.06,499.94,490.42,18.73,0000 0000 0000 0000 000000
2014-09-13 04:33:48,-0.01,0.32,0.00,26.39,30.35,32.68,9.42,39.46,1015.16,2024.62,3383.00,3201.00,3468.00,499.90,490.22,18.77,0000 0000 0000 0000 000000
2014-09-13 04:38:49,-0.03,0.32,0.00,26.40,30.37,32.70,9.47,39.55,1015.16,2024.33,3383.00,3200.97,3467.96,499.96,490.19,18.81,0000 0000 0000 0000 000000
2014-09-13 04:43:49,-0.01,0.32,0.00,26.41,30.38,32.70,9.37,39.63,1015.16,2024.14,3382.99,3200.91,3467.91,499.67,490.09,18.85,0000 0000 0000 0000 000000
2014-09-13 04:48:50,0.01,0.32,0.00,26.42,30.40,32.72,9.35,39.42,1015.16,2024.08,3382.96,3200.71,3467.77,500.08,490.49,18.89,0000 0000 0000 0000 000000
2014-09-13 04:53:51,0.01,0.32,0.00,26.44,30.41,32.73,9.40,39.41,1015.17,2024.04,3382.80,3200.40,3467.61,499.60,489.85,18.93,0000 0000 0000 0000 000000
2014-09-13 04:58:52,0.01,0.32,0.00,26.43,30.42,32.75,9.46,39.43,1015.17,2024.00,3382.31,3200.06,3467.51,500.33,490.54,18.98,0000 0000 0000 0000 000000
2014-09-13 05:03:53,0.01,0.32,0.00,26.43,30.44,32.77,9.47,39.61,1015.17,2024.00,3382.07,3200.01,3467.39,500.22,490.55,19.02,0000 0000 0000 0000 000000
2014-09-13 05:08:54,0.00,0.32,0.00,26.46,30.45,32.79,9.40,39.63,1015.17,2024.00,3382.01,3200.00,3467.03,499.57,490.16,19.06,0000 0000 0000 0000 000000
2014-09-13 05:13:55,0.00,0.32,0.00,26.47,30.47,32.79,9.40,39.38,1015.17,2024.00,3382.00,3200.00,3466.98,499.55,489.72,19.10,0000 0000 0000 0000 000000
2014-09-13 05:18:56,0.00,0.32,0.00,26.47,30.47,32.80,9.44,39.50,1015.17,2024.00,3381.99,3199.99,3466.95,500.08,490.28,19.14,0000 0000 0000 0000 000000
2014-09-13 05:23:57,0.00,0.32,0.00,26.47,30.50,32.82,9.42,39.51,1015.16,2024.00,3381.98,3199.96,3466.93,499.90,490.03,19.19,0000 0000 0000 0000 000000
2014-09-13 05:28:58,-0.00,0.32,0.00,26.47,30.50,32.84,9.35,39.14,1015.16,2023.99,3381.96,3199.94,3466.86,499.55,489.81,19.23,0000 0000 0000 0000 000000
2014-09-13 05:33:59,0.01,0.32,0.00,26.47,30.52,32.84,9.47,39.41,1015.16,2023.99,3381.82,3199.75,3466.74,500.19,490.60,19.27,0000 0000 0000 0000 000000
2014-09-13 05:39:00,0.01,0.32,0.00,26.48,30.52,32.85,9.37,39.03,1015.15,2023.99,3381.72,3199.48,3466.60,499.85,489.77,19.31,0000 0000 0000 0000 000000
2014-09-13 05:44:01,0.02,0.32,0.00,26.50,30.54,32.87,9.50,39.68,1015.15,2023.96,3381.17,3199.11,3466.19,499.99,490.18,19.35,0000 0000 0000 0000 000000
2014-09-13 05:49:02,0.00,0.32,0.00,26.52,30.55,32.87,9.43,39.48,1015.15,2023.92,3381.02,3199.01,3466.07,499.98,490.31,19.40,0000 0000 0000 0000 000000
2014-09-13 05:54:03,-0.01,0.32,0.00,26.52,30.56,32.89,9.40,39.21,1015.16,2023.88,3381.00,3199.00,3466.02,499.77,490.02,19.44,0000 0000 0000 0000 000000
2014-09-13 05:59:04,-0.02,0.32,0.00,26.52,30.57,32.89,9.43,39.36,1015.16,2023.68,3381.00,3199.00,3466.04,500.01,490.25,19.48,0000 0000 0000 0000 000000
2014-09-13 06:04:05,-0.04,0.32,0.00,26.54,30.59,32.92,9.42,39.48,1015.16,2023.29,3380.99,3199.00,3465.98,500.28,490.36,19.52,0000 0000 0000 0000 000000
2014-09-13 06:09:06,0.00,0.32,0.00,26.55,30.60,32.92,9.38,39.46,1015.17,2023.28,3380.99,3199.00,3465.93,499.77,489.86,19.56,0000 0000 0000 0000 000000
2014-09-13 06:14:07,-0.02,0.32,0.00,26.54,30.61,32.93,9.50,39.43,1015.17,2023.15,3380.98,3198.99,3465.87,500.30,490.42,19.60,0000 0000 0000 0000 000000
2014-09-13 06:19:08,-0.00,0.32,0.00,26.54,30.62,32.95,9.40,39.38,1015.17,2023.05,3380.97,3198.99,3465.70,499.96,490.19,19.65,0000 0000 0000 0000 000000
2014-09-13 06:24:09,0.00,0.32,0.00,26.56,30.62,32.95,9.44,39.17,1015.16,2023.02,3380.93,3198.95,3465.48,499.99,489.94,19.69,0000 0000 0000 0000 000000
2014-09-13 06:29:10,0.03,0.32,0.00,26.58,30.65,32.96,9.40,39.43,1015.16,2023.01,3380.53,3198.65,3465.19,499.98,490.21,19.73,0000 0000 0000 0000 000000
2014-09-13 06:34:11,0.01,0.32,0.00,26.58,30.65,32.96,9.47,39.48,1015.15,2023.00,3380.03,3198.21,3465.11,500.20,490.27,19.77,0000 0000 0000 0000 000000
2014-09-13 06:39:12,0.00,0.32,0.00,26.57,30.66,32.98,9.50,39.48,1015.15,2023.01,3380.00,3198.07,3465.10,500.05,490.35,19.81,0000 0000 0000 0000 000000
2014-09-13 06:44:13,-0.00,0.32,0.00,26.57,30.67,32.99,9.45,39.35,1015.15,2023.04,3379.98,3198.02,3465.03,500.02,489.79,19.86,0000 0000 0000 0000 000000
2014-09-13 06:49:15,0.00,0.32,0.00,26.61,30.68,32.99,9.48,39.08,1015.17,2023.03,3379.84,3198.00,3465.01,500.54,490.44,19.90,0000 0000 0000 0000 000000
2014-09-13 06:54:16,0.01,0.32,0.00,26.62,30.70,33.00,9.41,38.98,1015.17,2023.01,3379.38,3197.99,3464.95,499.98,489.93,19.94,0000 0000 0000 0000 000000
2014-09-13 06:59:17,-0.00,0.32,0.00,26.60,30.70,33.01,9.40,38.94,1015.18,2023.00,3379.12,3197.98,3464.91,499.38,489.57,19.98,0000 0000 0000 0000 000000
2014-09-13 07:04:18,0.01,0.32,0.00,26.62,30.70,33.01,9.46,39.27,1015.17,2023.00,3379.07,3197.97,3464.79,499.85,489.69,20.02,0000 0000 0000 0000 000000
2014-09-13 07:09:19,0.02,0.32,0.00,26.63,30.72,33.03,9.43,39.23,1015.17,2023.00,3379.00,3197.71,3464.37,499.41,489.52,20.06,0000 0000 0000 0000 000000
2014-09-13 07:14:20,0.01,0.33,0.00,26.62,30.72,33.05,9.46,39.17,1015.20,2023.00,3378.99,3197.32,3464.25,499.83,489.91,20.11,0000 0000 0000 0000 000000
2014-09-13 07:19:22,0.00,0.33,0.00,26.65,30.73,33.04,9.34,38.85,1015.43,2023.00,3378.97,3197.20,3464.18,499.92,489.86,20.15,0000 0000 0000 0000 000000
2014-09-13 07:24:23,0.01,0.33,0.00,26.65,30.75,33.06,9.43,39.14,1015.51,2023.00,3378.75,3197.06,3464.10,500.09,489.92,20.19,0000 0000 0000 0000 000000
2014-09-13 07:29:24,0.01,0.33,0.00,26.66,30.75,33.07,9.44,39.19,1015.55,2023.00,3378.40,3197.01,3464.01,500.25,490.45,20.23,0000 0000 0000 0000 000000
2014-09-13 07:34:25,0.00,0.33,0.00,26.63,30.75,33.07,9.46,38.73,1015.51,2022.99,3378.06,3197.00,3464.00,500.15,490.38,20.27,0000 0000 0000 0000 000000
2014-09-13 07:39:26,0.00,0.33,0.00,26.64,30.76,33.08,9.49,39.14,1015.50,2022.99,3378.02,3197.00,3463.98,500.11,490.33,20.32,0000 0000 0000 0000 000000
2014-09-13 07:44:27,0.00,0.33,0.00,26.65,30.77,33.09,9.39,38.58,1015.43,2022.99,3378.01,3197.00,3463.97,499.82,489.90,20.36,0000 0000 0000 0000 000000
2014-09-13 07:49:28,0.00,0.33,0.00,26.68,30.77,33.09,9.45,38.82,1015.25,2022.99,3378.01,3196.99,3463.96,500.00,490.01,20.40,0000 0000 0000 0000 000000
2014-09-13 07:54:29,0.00,0.33,0.00,26.68,30.78,33.10,9.39,38.49,1015.19,2022.99,3378.00,3196.99,3463.95,500.03,489.91,20.44,0000 0000 0000 0000 000000
2014-09-13 07:59:30,-0.00,0.33,0.00,26.70,30.80,33.11,9.52,38.97,1015.20,2022.98,3378.00,3196.97,3463.96,500.73,490.70,20.48,0000 0000 0000 0000 000000
2014-09-13 08:04:31,0.04,0.33,0.00,26.68,30.80,33.13,9.36,38.25,1015.23,2022.97,3377.71,3196.67,3463.56,499.65,489.41,20.53,0000 0000 0000 0000 000000
2014-09-13 08:09:33,0.02,0.33,0.00,26.67,30.80,33.12,9.47,38.82,1015.39,2022.96,3377.02,3196.08,3463.07,500.28,490.39,20.57,0000 0000 0000 0000 000000
2014-09-13 08:14:34,-0.00,0.33,0.00,26.67,30.80,33.13,9.49,38.95,1015.46,2022.94,3377.01,3196.04,3463.02,500.38,490.53,20.61,0000 0000 0000 0000 000000
2014-09-13 08:19:35,-0.00,0.33,0.00,26.70,30.81,33.13,9.40,38.96,1015.24,2022.94,3377.00,3196.03,3462.99,500.17,490.00,20.65,0000 0000 0000 0000 000000
2014-09-13 08:24:35,0.00,0.33,0.00,26.70,30.82,33.13,9.43,38.86,1015.18,2022.92,3376.85,3196.01,3462.91,500.18,490.05,20.69,0000 0000 0000 0000 000000
2014-09-13 08:29:36,0.01,0.33,0.00,26.70,30.82,33.13,9.38,38.48,1015.19,2022.89,3376.09,3195.96,3462.58,499.67,489.55,20.73,0000 0000 0000 0000 000000
2014-09-13 08:34:37,0.00,0.33,0.00,26.69,30.82,33.13,9.37,38.42,1015.19,2022.91,3376.02,3195.95,3462.63,499.74,489.61,20.78,0000 0000 0000 0000 000000
2014-09-13 08:39:39,0.00,0.33,0.00,26.70,30.85,33.17,9.36,39.02,1015.18,2022.90,3376.01,3195.93,3462.33,500.10,490.18,20.82,0000 0000 0000 0000 000000
2014-09-13 08:44:40,0.03,0.33,0.00,26.71,30.85,33.17,9.46,38.87,1015.22,2022.76,3375.25,3195.15,3461.96,499.90,489.82,20.86,0000 0000 0000 0000 000000
2014-09-13 08:49:41,-0.02,0.33,0.00,26.71,30.85,33.18,9.40,38.92,1015.44,2022.50,3375.01,3195.00,3461.79,499.58,489.63,20.90,0000 0000 0000 0000 000000
2014-09-13 08:54:42,0.02,0.33,0.00,26.72,30.85,33.19,9.38,39.09,1015.47,2022.47,3374.93,3194.98,3461.47,500.10,489.94,20.94,0000 0000 0000 0000 000000
2014-09-13 08:59:43,-0.02,0.33,0.00,26.72,30.87,33.19,9.52,39.30,1015.46,2022.35,3374.68,3194.96,3461.60,500.14,490.22,20.99,0000 0000 0000 0000 000000
2014-09-13 09:04:44,0.01,0.33,0.00,26.72,30.87,33.20,9.42,38.95,1015.32,2022.17,3374.29,3194.77,3461.27,500.22,490.12,21.03,0000 0000 0000 0000 000000
2014-09-13 09:09:45,0.01,0.33,0.00,26.73,30.87,33.21,9.45,38.97,1015.26,2022.15,3374.03,3194.60,3461.06,500.19,490.00,21.07,0000 0000 0000 0000 000000
2014-09-13 09:14:46,0.00,0.33,0.00,26.73,30.88,33.22,9.47,38.63,1015.45,2022.08,3374.01,3194.29,3461.02,500.04,489.94,21.11,0000 0000 0000 0000 000000
2014-09-13 09:19:47,-0.01,0.33,0.00,26.73,30.89,33.22,9.46,39.05,1015.33,2022.05,3374.01,3194.24,3461.02,500.26,490.04,21.15,0000 0000 0000 0000 000000
2014-09-13 09:24:48,0.00,0.33,0.00,26.71,30.90,33.24,9.49,38.90,1015.41,2022.04,3374.01,3194.19,3461.01,499.79,489.68,21.19,0000 0000 0000 0000 000000
2014-09-13 09:29:50,0.00,0.33,0.00,26.71,30.90,33.24,9.41,38.57,1015.62,2022.01,3374.00,3194.04,3460.99,499.92,489.90,21.24,0000 0000 0000 0000 000000
2014-09-13 09:34:51,0.00,0.33,0.00,26.70,30.90,33.24,9.39,38.51,1015.56,2022.02,3373.99,3194.01,3460.97,499.88,489.94,21.28,0000 0000 0000 0000 000000
2014-09-13 09:39:51,0.00,0.33,0.00,26.69,30.90,33.25,9.46,38.37,1015.53,2022.00,3373.98,3194.00,3460.94,500.13,489.95,21.32,0000 0000 0000 0000 000000
2014-09-13 09:44:53,0.00,0.33,0.00,26.70,30.90,33.25,9.44,38.79,1015.42,2022.00,3373.97,3194.01,3460.97,499.72,489.61,21.36,0000 0000 0000 0000 000000
2014-09-13 09:49:54,0.00,0.33,0.00,26.68,30.90,33.26,9.38,38.58,1015.47,2022.02,3373.97,3194.01,3460.98,499.63,489.52,21.40,0000 0000 0000 0000 000000
2014-09-13 09:54:54,-0.00,0.33,0.00,26.65,30.91,33.26,9.36,38.14,1015.56,2022.01,3373.93,3194.00,3460.95,498.89,489.34,21.45,0000 0000 0000 0000 000000
2014-09-13 09:59:55,-0.00,0.33,0.00,26.65,30.91,33.25,9.48,38.48,1015.54,2022.03,3373.97,3194.01,3460.98,500.46,490.68,21.49,0000 0000 0000 0000 000000
2014-09-13 10:04:56,0.00,0.33,0.00,26.64,30.91,33.25,9.41,38.64,1015.53,2022.03,3373.97,3194.01,3460.95,500.32,490.30,21.53,0000 0000 0000 0000 000000
2014-09-13 10:09:58,0.00,0.33,0.00,26.62,30.91,33.24,9.50,38.84,1015.50,2022.02,3373.95,3194.00,3460.94,500.03,490.19,21.57,0000 0000 0000 0000 000000
2014-09-13 10:14:59,0.00,0.33,0.00,26.62,30.90,33.25,9.50,38.39,1015.40,2022.00,3373.93,3194.00,3460.96,499.84,489.86,21.61,0000 0000 0000 0000 000000
2014-09-13 10:20:00,0.00,0.33,0.00,26.64,30.90,33.23,9.49,38.69,1015.58,2022.01,3373.91,3194.00,3460.94,500.08,490.23,21.65,0000 0000 0000 0000 000000
2014-09-13 10:25:01,0.00,0.33,0.00,26.63,30.90,33.24,9.33,38.43,1015.63,2022.03,3373.98,3194.00,3460.94,500.00,490.00,21.70,0000 0000 0000 0000 000000
2014-09-13 10:30:03,-0.00,0.33,0.00,26.59,30.90,33.22,9.49,38.54,1015.61,2022.05,3373.98,3194.02,3460.97,500.28,490.34,21.74,0000 0000 0000 0000 000000
2014-09-13 10:35:04,0.00,0.33,0.00,26.62,30.90,33.21,9.48,38.17,1015.59,2022.05,3373.92,3194.01,3460.93,499.64,490.02,21.78,0000 0000 0000 0000 000000
2014-09-13 10:40:05,-0.00,0.33,0.00,26.59,30.90,33.21,9.53,39.03,1015.56,2022.02,3373.81,3194.00,3460.88,499.89,490.19,21.82,0000 0000 0000 0000 000000
2014-09-13 10:45:06,-0.00,0.33,0.00,26.56,30.90,33.21,9.47,38.39,1015.53,2022.01,3373.77,3194.00,3460.91,500.24,490.89,21.86,0000 0000 0000 0000 000000
2014-09-13 10:50:07,0.00,0.33,0.00,26.57,30.90,33.22,9.49,38.67,1015.54,2022.03,3373.77,3194.00,3460.89,500.56,490.82,21.91,0000 0000 0000 0000 000000
2014-09-13 10:55:08,-0.00,0.33,0.00,26.56,30.90,33.22,9.35,37.80,1015.52,2022.06,3373.91,3194.00,3460.97,499.74,490.41,21.95,0000 0000 0000 0000 000000
2014-09-13 11:00:09,-0.00,0.33,0.00,26.53,30.90,33.20,9.46,38.77,1015.44,2022.05,3373.85,3194.00,3460.95,499.77,490.31,21.99,0000 0000 0000 0000 000000
2014-09-13 11:05:10,0.01,0.33,0.00,26.53,30.89,33.20,9.47,38.63,1015.39,2022.09,3373.94,3194.02,3460.98,500.46,490.59,22.03,0000 0000 0000 0000 000000
2014-09-13 11:10:12,-0.00,0.33,0.00,26.53,30.88,33.19,9.54,38.81,1015.46,2022.07,3373.94,3194.01,3460.97,500.45,490.56,22.07,0000 0000 0000 0000 000000
2014-09-13 11:15:13,0.00,0.33,0.00,26.52,30.87,33.18,9.39,38.55,1015.42,2022.07,3373.85,3194.01,3460.95,499.66,490.17,22.11,0000 0000 0000 0000 000000
2014-09-13 11:20:14,-0.00,0.33,0.00,26.50,30.87,33.18,9.45,38.51,1015.47,2022.06,3373.89,3194.00,3460.97,499.95,490.47,22.16,0000 0000 0000 0000 000000
2014-09-13 11:25:15,-0.00,0.33,0.00,26.51,30.87,33.16,9.43,38.38,1015.39,2022.05,3373.88,3194.00,3460.95,500.18,490.68,22.20,0000 0000 0000 0000 000000
2014-09-13 11:30:16,0.00,0.33,0.00,26.49,30.87,33.17,9.41,38.67,1015.40,2022.05,3373.75,3194.00,3460.89,500.00,490.27,22.24,0000 0000 0000 0000 000000
2014-09-13 11:35:17,0.00,0.33,0.00,26.48,30.86,33.16,9.46,38.71,1015.38,2022.11,3373.87,3194.02,3460.95,499.44,489.60,22.28,0000 0000 0000 0000 000000
2014-09-13 11:40:18,-0.01,0.33,0.00,26.48,30.85,33.17,9.47,38.50,1015.25,2022.06,3373.67,3194.00,3460.93,499.47,489.91,22.32,0000 0000 0000 0000 000000
2014-09-13 11:45:19,0.01,0.33,0.00,26.51,30.85,33.15,9.50,38.98,1015.35,2022.11,3373.78,3194.00,3460.96,500.14,490.64,22.37,0000 0000 0000 0000 000000
2014-09-13 11:50:21,-0.00,0.33,0.00,26.50,30.85,33.15,9.44,38.59,1015.20,2022.20,3373.88,3194.04,3460.92,500.13,490.34,22.41,0000 0000 0000 0000 000000
2014-09-13 11:55:21,0.01,0.33,0.00,26.49,30.83,33.14,9.49,38.46,1015.17,2022.28,3373.84,3194.09,3460.92,499.37,489.54,22.45,0000 0000 0000 0000 000000
2014-09-13 12:00:22,-0.01,0.33,0.00,26.47,30.82,33.14,9.50,38.52,1015.18,2022.11,3373.73,3194.02,3460.91,500.07,490.33,22.49,0000 0000 0000 0000 000000
2014-09-13 12:05:24,0.02,0.33,0.00,26.47,30.82,33.14,9.33,37.81,1015.17,2022.36,3373.89,3194.11,3460.96,499.29,489.79,22.53,0000 0000 0000 0000 000000
2014-09-13 12:10:25,-0.01,0.33,0.00,26.45,30.82,33.13,9.51,38.71,1015.16,2022.18,3373.94,3194.11,3460.88,499.82,489.81,22.58,0000 0000 0000 0000 000000
2014-09-13 12:15:26,-0.01,0.33,0.00,26.44,30.80,33.11,9.49,38.77,1015.16,2022.15,3373.94,3194.12,3460.86,499.76,490.07,22.62,0000 0000 0000 0000 000000
2014-09-13 12:20:27,-0.00,0.33,0.00,26.45,30.80,33.10,9.45,38.62,1015.16,2022.10,3373.85,3194.10,3460.83,500.31,490.54,22.66,0000 0000 0000 0000 000000
2014-09-13 12:25:27,0.01,0.33,0.00,26.43,30.80,33.10,9.36,38.33,1015.18,2022.19,3373.86,3194.11,3460.92,499.68,490.08,22.70,0000 0000 0000 0000 000000
2014-09-13 12:30:29,0.00,0.33,0.00,26.43,30.77,33.07,9.47,38.97,1015.18,2022.22,3373.68,3194.12,3460.86,500.63,491.01,22.74,0000 0000 0000 0000 000000
2014-09-13 12:35:30,0.03,0.33,0.00,26.44,30.77,33.08,9.46,38.51,1015.17,2022.52,3373.75,3194.39,3460.93,499.77,489.97,22.78,0000 0000 0000 0000 000000
2014-09-13 12:40:31,0.00,0.33,0.00,26.45,30.77,33.07,9.39,38.88,1015.17,2022.50,3373.53,3194.26,3460.92,499.99,490.50,22.83,0000 0000 0000 0000 000000
2014-09-13 12:45:32,-0.01,0.33,0.00,26.42,30.75,33.08,9.46,38.78,1015.17,2022.47,3373.40,3194.19,3460.92,500.45,490.70,22.87,0000 0000 0000 0000 000000
2014-09-13 12:50:33,0.02,0.33,0.00,26.40,30.75,33.07,9.36,38.33,1015.18,2022.50,3373.45,3194.24,3460.93,500.17,490.38,22.91,0000 0000 0000 0000 000000
2014-09-13 12:55:34,0.03,0.34,0.00,26.38,30.75,33.07,9.43,38.93,1015.17,2022.82,3373.50,3194.45,3460.96,499.45,489.79,22.95,0000 0000 0000 0000 000000
2014-09-13 13:00:35,-0.00,0.34,0.00,26.36,30.73,33.04,9.51,38.93,1015.17,2022.90,3373.54,3194.54,3460.98,500.23,490.65,22.99,0000 0000 0000 0000 000000